Weather History for St. Augustine, FL

Change the Weather History Date:

Tuesday, January 24, 2012

  Actual Average Record
Temperature  
Mean Temperature 68 °F -  
Max Temperature 77 °F 62 °F 82 °F (2002)
Min Temperature 60 °F 44 °F 21 °F (2003)
Cooling Degree Days 4    
Growing Degree Days 18 (Base 50)    
Moisture  
Dew Point 62 °F    
Average Humidity 85    
Maximum Humidity 97    
Minimum Humidity 58    
Precipitation  
Precipitation 0.00 in - - ()
Sea Level Pressure  
Sea Level Pressure 30.17 in    
Wind  
Wind Speed 4 mph (South)    
Max Wind Speed 10 mph    
Max Gust Speed -    
Visibility 10 miles    
Events      
Averages and records for this station are not official NWS values.
T = Trace of Precipitation, MM = Missing Value Source: NWS Daily Summary

Daily Weather History Graph

Daily Weather History Graph

Search for Another Location

Airport:

Trip Planner

Search our weather history database for the weather conditions in past years. The results will help you decide how hot, cold, wet, or windy it might be!

Date:

Astronomy

Jan. 24, 2012 Rise Set
Actual Time 7:19 AM EST 5:55 PM EST
Civil Twilight 6:54 AM EST 6:20 PM EST
Nautical Twilight 6:25 AM EST 6:49 PM EST
Astronomical Twilight 5:56 AM EST 7:18 PM EST
Moon 7:57 AM EST (1/24) 7:33 PM EST (1/24)
Length of Visible Light 11h 26m
Length of Day
10h 35m
New Moon, 2% of the Moon is Illuminated
Jan 24
New Moon
Jan 30
First Quarter
Feb 7
Full
Feb 14
Last Quarter
Feb 21
New

Hourly Weather History & Observations

Time (EST) Temp. Dew Point Humidity Pressure Visibility Wind Dir Wind Speed Gust Speed Precip Events Conditions
12:58 AM 64.0 °F 61.0 °F 90% 30.12 in 10.0 mi SSW 4.6 mph - N/A   Clear
1:58 AM 63.0 °F 61.0 °F 93% 30.13 in 10.0 mi SSW 3.5 mph - N/A   Clear
2:58 AM 62.1 °F 60.1 °F 93% 30.13 in 10.0 mi Calm Calm - N/A   Clear
3:58 AM 61.0 °F 59.0 °F 93% 30.12 in 10.0 mi Calm Calm - N/A   Clear
4:58 AM 61.0 °F 59.0 °F 93% 30.12 in 10.0 mi South 4.6 mph - N/A   Clear
5:58 AM 61.0 °F 60.1 °F 97% 30.14 in 10.0 mi WSW 4.6 mph - N/A   Clear
7:58 AM 60.1 °F 59.0 °F 96% 30.17 in 10.0 mi Calm Calm - N/A   Scattered Clouds
8:58 AM 64.0 °F 62.1 °F 93% 30.20 in 10.0 mi Variable 3.5 mph - N/A   Clear
9:58 AM 66.9 °F 63.0 °F 87% 30.22 in 10.0 mi WSW 4.6 mph - N/A   Clear
10:58 AM 72.0 °F 63.0 °F 73% 30.21 in 10.0 mi WSW 5.8 mph - N/A   Clear
11:58 AM 75.0 °F 63.0 °F 66% 30.19 in 10.0 mi Variable 4.6 mph - N/A   Clear
12:58 PM 77.0 °F 61.0 °F 58% 30.16 in 10.0 mi Variable 6.9 mph - N/A   Clear
1:58 PM 72.0 °F 64.9 °F 78% 30.15 in 10.0 mi East 6.9 mph - N/A   Clear
2:58 PM 73.9 °F 64.9 °F 73% 30.14 in 10.0 mi ESE 10.4 mph - N/A   Clear
3:58 PM 73.9 °F 64.9 °F 73% 30.15 in 10.0 mi SE 9.2 mph - N/A   Clear
4:58 PM 73.0 °F 64.9 °F 76% 30.15 in 10.0 mi SSE 10.4 mph - N/A   Clear
5:58 PM 68.0 °F 64.0 °F 87% 30.17 in 10.0 mi SSE 4.6 mph - N/A   Clear
6:58 PM 68.0 °F 64.0 °F 87% 30.17 in 10.0 mi SSE 6.9 mph - N/A   Clear
7:58 PM 68.0 °F 64.0 °F 87% 30.19 in 10.0 mi SSE 5.8 mph - N/A   Clear
8:58 PM 66.9 °F 64.0 °F 90% 30.20 in 10.0 mi SSE 5.8 mph - N/A   Clear
9:58 PM 64.9 °F 63.0 °F 93% 30.21 in 10.0 mi Calm Calm - N/A   Clear
10:58 PM 63.0 °F 61.0 °F 93% 30.21 in 10.0 mi Calm Calm - N/A   Clear
11:58 PM 63.0 °F 62.1 °F 97% 30.21 in 10.0 mi Calm Calm - N/A   Clear